Location: Forst
(46.9333°N, 15.4333°E)
Time: 16:39:32
(UTC+00:00)

AIST 2 - Visible Passes

Search period start: 24 June 2021 00:00
Search period end: 04 July 2021 00:00
Orbit: 545 x 557 km, 64.9° (Epoch: 24 June)

Date Brightness Start Highest point End Pass type
(mag) Time Alt. Az. Time Alt. Az. Time Alt. Az.
27 Jun ? 02:25:08 10° SSE 02:28:26 23° ESE 02:31:45 10° ENE visible
28 Jun ? 02:20:12 10° S 02:23:49 30° ESE 02:27:28 10° NE visible
29 Jun ? 02:15:23 10° S 02:19:13 38° ESE 02:23:05 10° NE visible
30 Jun ? 02:10:39 10° SSW 02:14:38 50° ESE 02:18:40 10° NE visible
01 Jul ? 02:06:01 10° SSW 02:10:04 65° ESE 02:14:12 10° NE visible
02 Jul ? 02:01:44 12° SSW 02:05:32 84° SE 02:09:41 10° NE visible
03 Jul ? 00:21:42 11° SE 00:23:10 13° ESE 00:25:09 10° E visible
03 Jul ? 01:57:25 14° SW 02:00:59 76° NW 02:05:10 10° NE visible
